Location: Karcze
(52.0945°N, 22.4786°E)
Time: 12:21:57
(UTC+00:00)

Helios 1B rocket - Pass Details

Date: 14 July 2020
Orbit: 574 x 584 km, 98.1° (Epoch: 07 August)

Event Time Altitude Azimuth Distance (km) Brightness Sun altitude
Rises 00:24:16 0° 5° (N) 2,814 7.4 -12.6°
Reaches altitude 10° 00:26:46 10° 351° (N) 1,907 5.9 -12.4°
Maximum altitude 00:30:00 23° 299° (WNW) 1,260 4.2 -12.2°
Enters shadow 00:33:06 11° 248° (WSW) 1,851 4.6 -12.0°
